Showing default

OPS 9344 (IDSCS 22), 3287

Orbit data source: Space-Track

OPS 9344 (IDSCS 22), 3287 is a payload satellite owned by SAMSO (US) in GEO that was launched on Thu, 13 Jun 1968 UTC via a TITAN IIIC launch vehicle from the Air Force Eastern Test Range (AFETR). Payload-class satellites include a variety of spacecraft equipped with specific instruments for various scientific and technological missions. These include communications satellites like Starlink; space stations such as the ISS; scientific satellites like the Hubble; Earth observation satellites from companies like Planet Labs, Umbra, and HawkEye 360; GPS; miniature CubeSats for education and research; and military/defense satellites.

Not visible in the next 10 days
Identifier
3287, 1968-050D
Orbit
GEO
Country
Flag of USUS
Related business
Manufacturer
Philco-Ford
Mission
Non-operational spacecraft
Bus & Motor
IDCSP, Unknown motor
Mass
45 kg wet, 45 kg dry
Launch date (UTC)
1968-06-13 (57 years ago)
Launch vehicle
TITAN IIIC
Launch site
Air Force Eastern Test Range (AFETR)
Object type
Payload
Rocket body
Debris
Shape & HBR
Unknown
Radar Cross Section
Medium (>0.1 m² and <1 m²)

Expand to show TLE details & history
Last TLE update: 19 hours ago

TLE from 19 hours ago
0 OPS 9344 (IDSCS 22)
1 03287U 68050D   25292.86482971 -.00000119  00000-0  00000-0 0  9996
2 03287   6.6909  54.4704 0027108 142.3680 234.0916  1.07640890224680
Epoch: 2025-10-19T20:45Z
TLE epoch observation values (Epoch: 2025-10-19T20:45:21.286Z)
Latitude
1.85908°
Longitude
90.63552°
Altitude
33,903.423 km
Speed
3.143 km/s
True Right ascension
04h 42m 11s
True Declination
1° 51' 26"
Sunlit
Object was in daylight at epoch
Visualization orbit readout
Latitude
Unknown
Longitude
Unknown
Altitude
Unknown
Speed
Unknown
Apparent Right ascension
Unknown
Apparent Declination
Unknown
Sunlit
N/A
Visualization observer readout
Local Sidereal Time
10:32:03
Azimuth
Unknown
Elevation
Unknown
Doppler factor
Unknown
Orbital elements
Apogee altitude
33,949.663 km
Perigee altitude
33,731.613 km
Semi-major axis
40,218.775 km
Eccentricity
0.00271
Inclination
6.6909°
RAAN
54.4704°
Arg. of periapsis
142.368°
True anomaly
233.8405°
Mean anomaly
234.0916°
Eccentric anomaly
233.966°
Mean motion
0.26909 °/min
Orbital period
1,337.84 mins
BSTAR
0
Loading maneuver chart data...
Computing Atmospheric mass density...
Loading historical data...
Loading historical data...
Loading historical data...
Loading historical data...
Loading historical data...
Loading historical data...
Loading historical data...

Documentation

Showing up to 5 results
|